Location: Newark
(43.0000°N, 1.6781°W)
Time: 18:02:58
(UTC+00:00)

XW-2D - Visible Passes

Search period start: 30 November 2022 00:00
Search period end: 10 December 2022 00:00
Orbit: 490 x 509 km, 97.5° (Epoch: 30 November)

Date Brightness Start Highest point End Pass type
(mag) Time Alt. Az. Time Alt. Az. Time Alt. Az.
30 Nov ? 05:59:47 10° NNE 06:03:18 45° E 06:06:46 10° S visible
30 Nov ? 18:12:41 10° SSW 18:15:40 23° W 18:18:39 10° NW visible
01 Dec ? 05:40:26 10° NE 05:43:32 26° E 05:46:37 10° SSE visible
01 Dec ? 17:52:25 10° S 17:55:53 40° W 17:59:22 10° NNW visible
02 Dec ? 05:21:30 10° NE 05:23:42 15° E 05:25:54 10° SE visible
02 Dec ? 17:32:30 10° S 17:36:09 73° WSW 17:39:50 10° NNW visible
03 Dec ? 06:34:20 10° N 06:37:56 61° WNW 06:41:31 10° SSW visible
03 Dec ? 17:12:51 10° SSE 17:16:28 61° ENE 17:20:05 10° N visible
04 Dec ? 06:14:35 10° NNE 06:18:15 73° ESE 06:21:51 10° S visible
04 Dec ? 18:28:24 10° SW 18:30:40 16° W 18:32:56 10° NW visible
05 Dec ? 05:55:03 10° NNE 05:58:28 39° E 06:01:53 10° S visible
05 Dec ? 18:07:41 10° SSW 18:10:48 26° W 18:13:56 10° NW visible
06 Dec ? 05:35:43 10° NE 05:38:39 22° E 05:41:33 10° SSE visible
06 Dec ? 17:47:27 10° S 17:50:59 46° W 17:54:31 10° NNW visible
07 Dec ? 05:16:55 10° ENE 05:18:44 13° E 05:20:34 10° ESE visible
07 Dec ? 06:49:15 10° N 06:52:40 39° WNW 06:56:04 10° SW visible
07 Dec ? 17:27:34 10° SSE 17:31:12 86° WSW 17:34:52 10° NNW visible
08 Dec ? 06:29:19 10° N 06:32:58 72° WNW 06:36:35 10° SSW visible
08 Dec ? 17:07:55 10° SSE 17:11:29 52° ENE 17:15:02 10° N visible
08 Dec ? 18:44:52 10° W 18:45:30 10° W 18:46:08 10° W visible
09 Dec ? 06:09:35 10° NNE 06:13:11 61° E 06:16:47 10° S visible
09 Dec ? 18:23:01 10° SW 18:25:33 18° W 18:28:06 10° NW visible
